Terminal Aerodrome Forecast
Issued by NWS Grand Rapids, MI

Home | Current Version | Previous Version | Text Only | Print | Product List | Glossary On
Versions: 1 2 3 4 5 6 7 8 9 10 11 12 13 14 15 16 17 18 19 20 21 22 23
000
FTUS43 KGRR 011300 AAA
TAFGRR
TAF AMD
KGRR 011319Z 0113/0212 09004KT 6SM BR OVC005
     FM011400 10004KT 4SM BR OVC007
     FM011800 15008KT P6SM BKN035
     FM012300 14006KT P6SM BKN250
     FM020900 12007KT P6SM VCSH OVC050=

USA.gov is the U.S. government's official web portal to all federal, state and local government web resources and services.